When you browse on this site, cookies collect data to enhance your experience and personalize the content and advertising you see.
Visit our Privacy Policy to learn more. By continuing to use the site, you agree to this use of cookies and data.
  • In Romania
  • List of Countries
  • For 7 days
  • Water Temperature
  • Satellite Maps
  • Weather Map
  • Weather Widgets
  • user-avatar
    Login

    Hourly Weather Les Pennes-Mirabeau

    Today, 26 June, Wednesday

    Time Temperature Precipitation Wind Pressure Humidity
    00:00 +27°C° 0 mm 1 mps 756 mmHg 52%
    01:00 +27°C° 0 mm 1 mps 756 mmHg 52%
    02:00 +27°C° 0 mm 1 mps 756 mmHg 52%
    03:00 +26°C° 0 mm 1 mps 756 mmHg 53%
    04:00 +27°C° 0 mm 1 mps 756 mmHg 52%
    05:00 +27°C° 0 mm 1 mps 756 mmHg 51%
    06:00 +28°C° 0 mm 1 mps 757 mmHg 50%
    07:00 +30°C° 0 mm 1 mps 757 mmHg 46%
    08:00 +32°C° 0 mm 1 mps 757 mmHg 41%
    09:00 +33°C° 0 mm 1 mps 757 mmHg 37%
    10:00 +34°C° 0 mm 1 mps 757 mmHg 35%
    11:00 +37°C° 0 mm 2 mps 757 mmHg 33%
    12:00 +38°C° 0 mm 3 mps 757 mmHg 30%
    13:00 +38°C° 0 mm 3 mps 757 mmHg 31%
    14:00 +37°C° 0 mm 3 mps 756 mmHg 32%
    15:00 +37°C° 0 mm 4 mps 756 mmHg 33%
    16:00 +36°C° 0 mm 3 mps 756 mmHg 36%
    17:00 +35°C° 0 mm 3 mps 756 mmHg 38%
    18:00 +32°C° 0 mm 2 mps 756 mmHg 41%
    19:00 +31°C° 0 mm 2 mps 756 mmHg 44%
    20:00 +30°C° 0 mm 1 mps 756 mmHg 46%
    21:00 +28°C° 0 mm 0 mps 757 mmHg 48%
    22:00 +29°C° 0 mm 1 mps 757 mmHg 48%
    23:00 +29°C° 0 mm 1 mps 757 mmHg 48%

    Tomorrow, 27 June, Thursday

    Time Temperature Precipitation Wind Pressure Humidity
    00:00 +29°C° 0 mm 1 mps 757 mmHg 48%
    01:00 +29°C° 0 mm 2 mps 756 mmHg 49%
    02:00 +28°C° 0 mm 2 mps 756 mmHg 50%
    03:00 +28°C° 0 mm 2 mps 756 mmHg 51%
    04:00 +28°C° 0 mm 2 mps 756 mmHg 50%
    05:00 +29°C° 0 mm 1 mps 755 mmHg 49%
    06:00 +29°C° 0 mm 1 mps 755 mmHg 48%
    07:00 +31°C° 0 mm 1 mps 756 mmHg 44%
    08:00 +33°C° 0 mm 1 mps 756 mmHg 39%
    09:00 +33°C° 0 mm 0 mps 756 mmHg 35%
    10:00 +36°C° 0 mm 1 mps 755 mmHg 33%
    11:00 +38°C° 0 mm 2 mps 755 mmHg 32%
    12:00 +39°C° 0 mm 3 mps 755 mmHg 30%
    13:00 +38°C° 0 mm 3 mps 755 mmHg 30%
    14:00 +38°C° 0 mm 4 mps 754 mmHg 30%
    15:00 +38°C° 0 mm 4 mps 754 mmHg 31%
    16:00 +37°C° 0 mm 4 mps 754 mmHg 31%
    17:00 +36°C° 0 mm 3 mps 753 mmHg 32%
    18:00 +35°C° 0 mm 3 mps 753 mmHg 33%
    19:00 +34°C° 0 mm 3 mps 753 mmHg 35%
    20:00 +33°C° 0 mm 3 mps 753 mmHg 37%
    21:00 +31°C° 0 mm 2 mps 754 mmHg 39%
    22:00 +31°C° 0 mm 2 mps 753 mmHg 40%
    23:00 +30°C° 0 mm 2 mps 753 mmHg 41%

    Day after tomorrow, 28 June, Friday

    Time Temperature Precipitation Wind Pressure Humidity
    00:00 +30°C° 0 mm 2 mps 753 mmHg 42%
    01:00 +29°C° 0 mm 2 mps 752 mmHg 43%
    02:00 +29°C° 0 mm 2 mps 752 mmHg 44%
    03:00 +28°C° 0 mm 2 mps 752 mmHg 46%
    04:00 +29°C° 0 mm 2 mps 751 mmHg 46%
    05:00 +29°C° 0 mm 2 mps 751 mmHg 45%
    06:00 +30°C° 0 mm 2 mps 751 mmHg 45%
    07:00 +31°C° 0 mm 2 mps 751 mmHg 43%
    08:00 +34°C° 0 mm 2 mps 751 mmHg 41%
    09:00 +36°C° 0 mm 2 mps 751 mmHg 38%
    10:00 +37°C° 0 mm 3 mps 751 mmHg 37%
    11:00 +38°C° 0 mm 3 mps 750 mmHg 35%
    12:00 +40°C° 0 mm 4 mps 750 mmHg 33%
    13:00 +40°C° 0 mm 4 mps 750 mmHg 33%
    14:00 +38°C° 0 mm 4 mps 750 mmHg 33%
    15:00 +37°C° 0 mm 4 mps 750 mmHg 33%
    16:00 +36°C° 0 mm 4 mps 750 mmHg 36%
    17:00 +35°C° 0 mm 3 mps 750 mmHg 38%
    18:00 +34°C° 0 mm 3 mps 750 mmHg 41%
    19:00 +33°C° 0 mm 3 mps 750 mmHg 44%
    20:00 +31°C° 0 mm 2 mps 750 mmHg 46%
    21:00 +30°C° 0 mm 1 mps 750 mmHg 49%
    22:00 +30°C° 0 mm 1 mps 750 mmHg 49%
    23:00 +29°C° 0 mm 1 mps 751 mmHg 50%

    29 June, Saturday

    Time Temperature Precipitation Wind Pressure Humidity
    00:00 +29°C° 0 mm 1 mps 751 mmHg 51%
    01:00 +29°C° 0 mm 1 mps 750 mmHg 52%
    02:00 +29°C° 0 mm 1 mps 750 mmHg 53%
    03:00 +28°C° 0 mm 1 mps 750 mmHg 54%
    04:00 +29°C° 0 mm 1 mps 750 mmHg 54%
    05:00 +29°C° 0 mm 1 mps 750 mmHg 53%
    06:00 +30°C° 0 mm 1 mps 750 mmHg 53%
    07:00 +31°C° 0 mm 1 mps 751 mmHg 51%
    08:00 +32°C° 0 mm 2 mps 751 mmHg 48%
    09:00 +34°C° 0 mm 2 mps 751 mmHg 46%
    10:00 +35°C° 0 mm 3 mps 751 mmHg 45%
    11:00 +35°C° 0 mm 4 mps 752 mmHg 45%
    12:00 +36°C° 0 mm 5 mps 752 mmHg 44%
    13:00 +35°C° 0 mm 5 mps 752 mmHg 44%
    14:00 +35°C° 0 mm 6 mps 751 mmHg 45%
    15:00 +35°C° 0 mm 6 mps 751 mmHg 45%
    16:00 +35°C° 0 mm 5 mps 751 mmHg 47%
    17:00 +34°C° 0 mm 5 mps 751 mmHg 49%
    18:00 +33°C° 0 mm 4 mps 751 mmHg 51%
    19:00 +31°C° 0 mm 3 mps 752 mmHg 54%
    20:00 +30°C° 0 mm 2 mps 752 mmHg 58%
    21:00 +29°C° 0 mm 1 mps 753 mmHg 61%
    22:00 +29°C° 0 mm 1 mps 753 mmHg 62%
    23:00 +28°C° 0 mm 1 mps 753 mmHg 63%

    30 June, Sunday

    Time Temperature Precipitation Wind Pressure Humidity
    00:00 +28°C° 0 mm 1 mps 753 mmHg 64%
    01:00 +28°C° 0 mm 1 mps 753 mmHg 64%
    02:00 +28°C° 0 mm 1 mps 753 mmHg 63%
    03:00 +28°C° 0 mm 1 mps 752 mmHg 63%
    04:00 +28°C° 0 mm 1 mps 753 mmHg 61%
    05:00 +29°C° 0 mm 1 mps 753 mmHg 58%
    06:00 +29°C° 0 mm 1 mps 753 mmHg 56%
    07:00 +31°C° 0 mm 1 mps 753 mmHg 51%
    08:00 +32°C° 0 mm 1 mps 753 mmHg 46%
    09:00 +33°C° 0 mm 1 mps 754 mmHg 41%
    10:00 +35°C° 0 mm 2 mps 754 mmHg 40%
    11:00 +36°C° 0 mm 3 mps 753 mmHg 38%
    12:00 +36°C° 0 mm 3 mps 753 mmHg 37%
    13:00 +36°C° 0 mm 3 mps 753 mmHg 38%
    14:00 +36°C° 0 mm 4 mps 753 mmHg 39%
    15:00 +35°C° 0 mm 4 mps 753 mmHg 40%
    16:00 +35°C° 0 mm 3 mps 753 mmHg 43%
    17:00 +34°C° 0 mm 3 mps 753 mmHg 45%
    18:00 +32°C° 0 mm 2 mps 753 mmHg 47%
    19:00 +31°C° 0 mm 2 mps 753 mmHg 50%
    20:00 +30°C° 0 mm 1 mps 754 mmHg 52%
    21:00 +29°C° 0 mm 1 mps 754 mmHg 55%
    22:00 +29°C° 0 mm 1 mps 754 mmHg 55%
    23:00 +27°C° 0 mm 0 mps 754 mmHg 56%

    1 July, Monday

    Time Temperature Precipitation Wind Pressure Humidity
    00:00 +27°C° 0 mm 0 mps 754 mmHg 57%
    01:00 +26°C° 0 mm 0 mps 754 mmHg 58%
    02:00 +26°C° 0 mm 0 mps 753 mmHg 59%
    03:00 +26°C° 0 mm 0 mps 753 mmHg 60%
    04:00 +26°C° 0 mm 0 mps 754 mmHg 59%
    05:00 +26°C° 0 mm 0 mps 754 mmHg 58%
    06:00 +27°C° 0 mm 0 mps 754 mmHg 57%
    07:00 +30°C° 0 mm 1 mps 754 mmHg 52%
    08:00 +32°C° 0 mm 1 mps 754 mmHg 48%
    09:00 +33°C° 0 mm 1 mps 754 mmHg 44%
    10:00 +35°C° 0 mm 2 mps 754 mmHg 41%
    11:00 +35°C° 0 mm 3 mps 754 mmHg 39%
    12:00 +36°C° 0 mm 3 mps 753 mmHg 36%
    13:00 +35°C° 0 mm 3 mps 753 mmHg 37%
    14:00 +35°C° 0 mm 4 mps 753 mmHg 38%
    15:00 +35°C° 0 mm 4 mps 752 mmHg 39%
    16:00 +34°C° 0.1 mm 3 mps 752 mmHg 42%
    17:00 +33°C° 0.1 mm 3 mps 752 mmHg 45%
    18:00 +31°C° 0.1 mm 2 mps 753 mmHg 47%
    19:00 +30°C° 0.2 mm 2 mps 753 mmHg 50%
    20:00 +29°C° 0.2 mm 2 mps 754 mmHg 52%
    21:00 +29°C° 0.2 mm 1 mps 754 mmHg 54%
    22:00 +28°C° 0 mm 1 mps 754 mmHg 55%
    23:00 +28°C° 0 mm 1 mps 754 mmHg 55%
    Show more